| time (UTC) | temp F | wind direction | speed knots | gust knots | rain 1hr in | rain 24hr in | rain mn in | humidity % | barometer mb |
| 20260507144404 | 68 | 155 | 1.7 | 5.2 | 0.00 | 0.00 | 0.00 | 56 | 1009.6 |
| 20260507143905 | 68 | 176 | 1.7 | 4.3 | 0.00 | 0.00 | 0.00 | 56 | 1009.6 |
| 20260507143404 | 68 | 215 | 3.5 | 7.0 | 0.00 | 0.00 | 0.00 | 57 | 1009.6 |
| 20260507142905 | 68 | 207 | 4.3 | 7.0 | 0.00 | 0.00 | 0.00 | 56 | 1009.6 |
| 20260507142404 | 67 | 169 | 2.6 | 6.1 | 0.00 | 0.00 | 0.00 | 57 | 1009.7 |
| 20260507140904 | 67 | 216 | 4.3 | 6.1 | 0.00 | 0.00 | 0.00 | 56 | 1009.6 |
| 20260507135905 | 67 | 227 | 1.7 | 6.1 | 0.00 | 0.00 | 0.00 | 57 | 1009.5 |
| 20260507135404 | 67 | 202 | 2.6 | 6.1 | 0.00 | 0.00 | 0.00 | 56 | 1009.6 |
| 20260507134904 | 67 | 201 | 1.7 | 4.3 | 0.00 | 0.00 | 0.00 | 56 | 1009.6 |
| 20260507133904 | 67 | 219 | 3.5 | 6.1 | 0.00 | 0.00 | 0.00 | 57 | 1009.4 |
| 20260507133404 | 67 | 211 | 2.6 | 7.0 | 0.00 | 0.00 | 0.00 | 57 | 1009.5 |
| 20260507132404 | 68 | 233 | 4.3 | 10.4 | 0.00 | 0.00 | 0.00 | 56 | 1009.6 |
| 20260507131906 | 68 | 220 | 5.2 | 7.8 | 0.00 | 0.00 | 0.00 | 55 | 1009.7 |
| 20260507131404 | 68 | 222 | 4.3 | 7.8 | 0.00 | 0.00 | 0.00 | 56 | 1009.6 |
| 20260507130904 | 69 | 224 | 3.5 | 11.3 | 0.00 | 0.00 | 0.00 | 56 | 1009.6 |
| 20260507130404 | 69 | 221 | 6.1 | 10.4 | 0.00 | 0.00 | 0.00 | 54 | 1009.6 |
| 20260507125904 | 69 | 219 | 5.2 | 10.4 | 0.00 | 0.00 | 0.00 | 55 | 1009.6 |
| 20260507125405 | 69 | 222 | 6.1 | 10.4 | 0.00 | 0.00 | 0.00 | 56 | 1009.6 |
| 20260507124905 | 69 | 209 | 4.3 | 10.4 | 0.00 | 0.00 | 0.00 | 58 | 1009.6 |
| 20260507124404 | 69 | 244 | 5.2 | 13.0 | 0.00 | 0.00 | 0.00 | 60 | 1009.7 |
| 20260507123904 | 69 | 214 | 6.1 | 11.3 | 0.00 | 0.00 | 0.00 | 59 | 1009.7 |
| 20260507123404 | 69 | 248 | 6.1 | 10.4 | 0.00 | 0.00 | 0.00 | 58 | 1009.6 |
| 20260507122904 | 69 | 225 | 5.2 | 10.4 | 0.00 | 0.00 | 0.00 | 59 | 1009.6 |
| 20260507122404 | 69 | 250 | 5.2 | 8.7 | 0.00 | 0.00 | 0.00 | 58 | 1009.5 |
| 20260507121904 | 69 | 229 | 6.1 | 11.3 | 0.00 | 0.00 | 0.00 | 59 | 1009.6 |
| 20260507121404 | 69 | 233 | 5.2 | 10.4 | 0.00 | 0.00 | 0.00 | 58 | 1009.6 |
| 20260507120904 | 69 | 223 | 6.1 | 13.0 | 0.00 | 0.00 | 0.00 | 57 | 1009.7 |
| 20260507115904 | 69 | 235 | 6.1 | 12.2 | 0.00 | 0.00 | 0.00 | 58 | 1009.7 |
| 20260507115404 | 69 | 224 | 6.1 | 13.0 | 0.00 | 0.00 | 0.00 | 59 | 1009.7 |
| 20260507114904 | 69 | 239 | 5.2 | 14.8 | 0.00 | 0.00 | 0.00 | 60 | 1009.7 |
| 20260507114404 | 69 | 234 | 5.2 | 14.8 | 0.00 | 0.00 | 0.00 | 59 | 1009.7 |
| 20260507113904 | 69 | 216 | 4.3 | 10.4 | 0.00 | 0.00 | 0.00 | 59 | 1009.7 |
| 20260507113404 | 69 | 220 | 5.2 | 10.4 | 0.00 | 0.00 | 0.00 | 59 | 1009.7 |
| 20260507112905 | 69 | 227 | 5.2 | 10.4 | 0.00 | 0.00 | 0.00 | 58 | 1009.7 |
| 20260507112404 | 69 | 216 | 6.1 | 11.3 | 0.00 | 0.00 | 0.00 | 60 | 1009.7 |
| 20260507111905 | 69 | 196 | 4.3 | 13.9 | 0.00 | 0.00 | 0.00 | 59 | 1009.7 |
| 20260507111404 | 68 | 222 | 3.5 | 10.4 | 0.00 | 0.00 | 0.00 | 62 | 1009.7 |
| 20260507110904 | 68 | 242 | 6.1 | 10.4 | 0.00 | 0.00 | 0.00 | 61 | 1009.7 |
| 20260507110408 | 68 | 238 | 4.3 | 10.4 | 0.00 | 0.00 | 0.00 | 61 | 1009.7 |
| 20260507105903 | 68 | 238 | 5.2 | 10.4 | 0.00 | 0.00 | 0.00 | 62 | 1009.7 |
| 20260507105404 | 68 | 223 | 5.2 | 10.4 | 0.00 | 0.00 | 0.00 | 61 | 1009.6 |
| 20260507104904 | 68 | 224 | 5.2 | 10.4 | 0.00 | 0.00 | 0.00 | 61 | 1009.6 |
| 20260507104405 | 68 | 248 | 5.2 | 10.4 | 0.00 | 0.00 | 0.00 | 63 | 1009.6 |
| 20260507103904 | 67 | 245 | 7.0 | 13.0 | 0.00 | 0.00 | 0.00 | 63 | 1009.5 |
| 20260507103404 | 67 | 203 | 5.2 | 12.2 | 0.00 | 0.00 | 0.00 | 64 | 1009.6 |
| 20260507102904 | 67 | 236 | 3.5 | 8.7 | 0.00 | 0.00 | 0.00 | 65 | 1009.6 |
| 20260507102404 | 67 | 218 | 5.2 | 11.3 | 0.00 | 0.00 | 0.00 | 64 | 1009.5 |
| 20260507101904 | 66 | 237 | 3.5 | 12.2 | 0.00 | 0.00 | 0.00 | 65 | 1009.5 |
| 20260507101405 | 67 | 194 | 7.0 | 13.9 | 0.00 | 0.00 | 0.00 | 64 | 1009.5 |
| 20260507100904 | 67 | 193 | 3.5 | 8.7 | 0.00 | 0.00 | 0.00 | 64 | 1009.5 |
| 20260507095904 | 68 | 200 | 2.6 | 7.0 | 0.00 | 0.00 | 0.00 | 64 | 1009.4 |
| 20260507095404 | 68 | 203 | 4.3 | 7.8 | 0.00 | 0.00 | 0.00 | 64 | 1009.4 |
| 20260507094904 | 68 | 198 | 4.3 | 7.8 | 0.00 | 0.00 | 0.00 | 64 | 1009.2 |
| 20260507094404 | 68 | 221 | 5.2 | 10.4 | 0.00 | 0.00 | 0.00 | 65 | 1009.2 |
| 20260507093405 | 69 | 186 | 2.6 | 7.8 | 0.00 | 0.00 | 0.00 | 64 | 1009.2 |
| 20260507092904 | 69 | 195 | 3.5 | 10.4 | 0.00 | 0.00 | 0.00 | 65 | 1009.1 |
| 20260507091904 | 68 | 205 | 2.6 | 7.8 | 0.00 | 0.00 | 0.00 | 66 | 1009.1 |
| 20260507091404 | 68 | 189 | 1.7 | 6.1 | 0.00 | 0.00 | 0.00 | 67 | 1009.0 |
| 20260507090904 | 67 | 241 | 5.2 | 8.7 | 0.00 | 0.00 | 0.00 | 68 | 1008.9 |
| 20260507090404 | 67 | 175 | 2.6 | 7.0 | 0.00 | 0.00 | 0.00 | 69 | 1008.9 |
| 20260507085905 | 66 | 188 | 0.9 | 5.2 | 0.00 | 0.00 | 0.00 | 70 | 1008.9 |
| 20260507085404 | 66 | 218 | 1.7 | 5.2 | 0.00 | 0.00 | 0.00 | 70 | 1008.9 |
| 20260507084404 | 66 | 201 | 2.6 | 6.1 | 0.00 | 0.00 | 0.00 | 70 | 1008.8 |
| 20260507083904 | 66 | 206 | 2.6 | 7.0 | 0.00 | 0.00 | 0.00 | 70 | 1008.8 |
| 20260507083404 | 66 | 186 | 2.6 | 6.1 | 0.00 | 0.00 | 0.00 | 71 | 1008.7 |
| 20260507082404 | 66 | 216 | 2.6 | 4.3 | 0.00 | 0.00 | 0.00 | 69 | 1008.7 |
| 20260507081905 | 66 | 205 | 2.6 | 5.2 | 0.00 | 0.00 | 0.00 | 70 | 1008.7 |
| 20260507081404 | 66 | 229 | 3.5 | 7.0 | 0.00 | 0.00 | 0.00 | 69 | 1008.6 |
| 20260507080405 | 65 | 190 | 0.0 | 2.6 | 0.00 | 0.00 | 0.00 | 69 | 1008.6 |
| 20260507075904 | 65 | 193 | 1.7 | 6.1 | 0.00 | 0.00 | 0.00 | 70 | 1008.6 |
| 20260507075404 | 65 | 228 | 3.5 | 6.1 | 0.00 | 0.00 | 0.00 | 71 | 1008.6 |
| 20260507074905 | 65 | 248 | 2.6 | 7.0 | 0.00 | 0.00 | 0.00 | 72 | 1008.6 |
| 20260507074404 | 65 | 229 | 4.3 | 8.7 | 0.00 | 0.00 | 0.00 | 71 | 1008.6 |
| 20260507073904 | 64 | 222 | 4.3 | 7.8 | 0.00 | 0.00 | 0.00 | 72 | 1008.6 |
| 20260507073404 | 64 | 246 | 2.6 | 6.1 | 0.00 | 0.00 | 0.00 | 73 | 1008.6 |
| 20260507072905 | 64 | 233 | 1.7 | 4.3 | 0.00 | 0.00 | 0.00 | 74 | 1008.6 |
| 20260507071405 | 62 | 175 | 0.9 | 4.3 | 0.00 | 0.00 | 0.00 | 75 | 1008.5 |
| 20260507070904 | 62 | 209 | 4.3 | 7.0 | 0.00 | 0.00 | 0.00 | 76 | 1008.5 |
| 20260507070404 | 62 | 192 | 1.7 | 6.1 | 0.00 | 0.00 | 0.00 | 76 | 1008.4 |
| 20260507065904 | 61 | 198 | 3.5 | 7.0 | 0.00 | 0.00 | 0.00 | 77 | 1008.4 |
| 20260507065404 | 61 | 184 | 2.6 | 4.3 | 0.00 | 0.00 | 0.00 | 77 | 1008.4 |
| 20260507064904 | 61 | 168 | 2.6 | 6.1 | 0.00 | 0.00 | 0.00 | 77 | 1008.4 |
| 20260507064404 | 61 | 203 | 1.7 | 7.0 | 0.00 | 0.00 | 0.00 | 77 | 1008.4 |
| 20260507063904 | 61 | 207 | 2.6 | 6.1 | 0.00 | 0.00 | 0.00 | 77 | 1008.4 |
| 20260507063404 | 61 | 213 | 1.7 | 5.2 | 0.00 | 0.00 | 0.00 | 77 | 1008.4 |
| 20260507062904 | 61 | 166 | 3.5 | 6.1 | 0.00 | 0.00 | 0.00 | 78 | 1008.5 |
| 20260507061905 | 61 | 152 | 2.6 | 6.1 | 0.00 | 0.00 | 0.00 | 78 | 1008.1 |
| 20260507061405 | 60 | 233 | 1.7 | 5.2 | 0.00 | 0.00 | 0.00 | 78 | 1008.0 |
| 20260507060904 | 60 | 211 | 1.7 | 2.6 | 0.00 | 0.00 | 0.00 | 79 | 1007.9 |
| 20260507060404 | 60 | 207 | 0.9 | 2.6 | 0.00 | 0.00 | 0.00 | 79 | 1007.9 |
| 20260507055919 | 60 | 207 | 0.9 | 2.6 | 0.00 | 0.00 | 0.00 | 79 | 1007.9 |
| 20260507055404 | 60 | 207 | 1.7 | 5.2 | 0.00 | 0.00 | 0.00 | 79 | 1007.8 |
| 20260507054905 | 60 | 189 | 0.9 | 4.3 | 0.00 | 0.00 | 0.00 | 79 | 1007.8 |
| 20260507054404 | 60 | 185 | 1.7 | 5.2 | 0.00 | 0.00 | 0.00 | 79 | 1007.7 |
| 20260507053904 | 60 | 206 | 2.6 | 6.1 | 0.00 | 0.00 | 0.00 | 79 | 1007.7 |
| 20260507053404 | 60 | 189 | 4.3 | 7.0 | 0.00 | 0.00 | 0.00 | 79 | 1007.7 |
| 20260507052405 | 60 | 190 | 2.6 | 6.1 | 0.00 | 0.00 | 0.00 | 79 | 1007.6 |
| 20260507051904 | 59 | 232 | 1.7 | 7.8 | 0.00 | 0.00 | 0.00 | 79 | 1007.6 |
| 20260507051405 | 59 | 213 | 2.6 | 7.0 | 0.00 | 0.00 | 0.00 | 79 | 1007.6 |
| 20260507050904 | 59 | 214 | 2.6 | 6.1 | 0.00 | 0.00 | 0.00 | 79 | 1007.5 |
| 20260507050404 | 59 | 205 | 1.7 | 5.2 | 0.00 | 0.00 | 0.00 | 79 | 1007.4 |
| 20260507045405 | 59 | 194 | 1.7 | 6.1 | 0.00 | 0.00 | 0.00 | 79 | 1007.2 |
| 20260507043905 | 59 | 188 | 0.9 | 2.6 | 0.00 | 0.00 | 0.00 | 79 | 1007.1 |
| 20260507043404 | 59 | 188 | 1.7 | 6.1 | 0.00 | 0.00 | 0.00 | 79 | 1007.1 |
| 20260507042904 | 59 | 165 | 0.9 | 4.3 | 0.00 | 0.00 | 0.00 | 79 | 1007.1 |
| 20260507042404 | 59 | 142 | 0.9 | 4.3 | 0.00 | 0.00 | 0.00 | 79 | 1007.0 |
| 20260507041905 | 59 | 138 | 0.9 | 5.2 | 0.00 | 0.00 | 0.00 | 79 | 1006.8 |
| 20260507041404 | 59 | 152 | 0.9 | 4.3 | 0.00 | 0.00 | 0.00 | 79 | 1006.8 |
| 20260507035904 | 60 | 67 | 0.9 | 2.6 | 0.00 | 0.00 | 0.00 | 79 | 1006.8 |
| 20260507035404 | 60 | 136 | 0.0 | 1.7 | 0.00 | 0.00 | 0.00 | 79 | 1006.6 |
| 20260507034905 | 60 | 136 | 0.9 | 1.7 | 0.00 | 0.00 | 0.00 | 78 | 1006.5 |
| 20260507034405 | 60 | 163 | 1.7 | 5.2 | 0.00 | 0.00 | 0.00 | 78 | 1006.5 |
| 20260507033904 | 60 | 174 | 1.7 | 4.3 | 0.00 | 0.00 | 0.00 | 78 | 1006.5 |
| 20260507033404 | 60 | 194 | 1.7 | 5.2 | 0.00 | 0.00 | 0.00 | 78 | 1006.3 |
| 20260507032904 | 60 | 117 | 1.7 | 6.1 | 0.00 | 0.00 | 0.00 | 78 | 1006.2 |
| 20260507032404 | 60 | 157 | 1.7 | 5.2 | 0.00 | 0.00 | 0.00 | 78 | 1006.2 |
| 20260507031905 | 60 | 194 | 1.7 | 5.2 | 0.00 | 0.00 | 0.00 | 78 | 1006.2 |
| 20260507031404 | 60 | 195 | 1.7 | 2.6 | 0.00 | 0.00 | 0.00 | 77 | 1006.1 |
| 20260507030904 | 60 | 207 | 1.7 | 6.1 | 0.00 | 0.00 | 0.00 | 77 | 1006.1 |
| 20260507030404 | 60 | 185 | 1.7 | 4.3 | 0.00 | 0.00 | 0.00 | 77 | 1006.2 |
| 20260507025904 | 60 | 235 | 2.6 | 6.1 | 0.00 | 0.00 | 0.00 | 77 | 1006.1 |
| 20260507025404 | 61 | 234 | 4.3 | 10.4 | 0.00 | 0.00 | 0.00 | 77 | 1006.1 |
| 20260507024405 | 61 | 118 | 0.9 | 5.2 | 0.00 | 0.00 | 0.00 | 76 | 1005.9 |
| 20260507023904 | 61 | 199 | 1.7 | 6.1 | 0.00 | 0.00 | 0.00 | 76 | 1005.9 |
| 20260507023404 | 61 | 178 | 1.7 | 7.8 | 0.00 | 0.00 | 0.00 | 76 | 1005.9 |
| 20260507022905 | 61 | 182 | 0.9 | 6.1 | 0.00 | 0.00 | 0.00 | 76 | 1005.8 |
| 20260507022404 | 61 | 219 | 2.6 | 7.0 | 0.00 | 0.00 | 0.00 | 76 | 1005.7 |
| 20260507020904 | 61 | 181 | 5.2 | 10.4 | 0.00 | 0.00 | 0.00 | 75 | 1005.5 |
| 20260507020404 | 61 | 163 | 5.2 | 10.4 | 0.00 | 0.00 | 0.00 | 74 | 1005.5 |
| 20260507015904 | 62 | 189 | 4.3 | 10.4 | 0.00 | 0.00 | 0.00 | 74 | 1005.4 |
| 20260507015405 | 62 | 183 | 5.2 | 12.2 | 0.00 | 0.00 | 0.00 | 74 | 1005.3 |
| 20260507014904 | 62 | 177 | 4.3 | 7.8 | 0.00 | 0.00 | 0.00 | 73 | 1005.3 |
| 20260507014404 | 62 | 177 | 2.6 | 8.7 | 0.00 | 0.00 | 0.00 | 73 | 1005.2 |
| 20260507013904 | 62 | 180 | 2.6 | 7.0 | 0.00 | 0.00 | 0.00 | 73 | 1005.2 |
| 20260507013404 | 62 | 185 | 2.6 | 8.7 | 0.00 | 0.00 | 0.00 | 73 | 1005.3 |
| 20260507012904 | 62 | 195 | 2.6 | 7.8 | 0.00 | 0.00 | 0.00 | 73 | 1005.3 |
| 20260507012404 | 62 | 157 | 1.7 | 6.1 | 0.00 | 0.00 | 0.00 | 73 | 1005.1 |
| 20260507011904 | 62 | 151 | 1.7 | 4.3 | 0.00 | 0.00 | 0.00 | 73 | 1005.1 |
| 20260507011405 | 62 | 136 | 0.9 | 4.3 | 0.00 | 0.00 | 0.00 | 73 | 1005.1 |
| 20260507010904 | 62 | 190 | 1.7 | 5.2 | 0.00 | 0.00 | 0.00 | 73 | 1005.0 |
| 20260507005904 | 62 | 165 | 2.6 | 7.0 | 0.00 | 0.00 | 0.00 | 73 | 1005.0 |
| 20260507005408 | 63 | 160 | 2.6 | 6.1 | 0.00 | 0.00 | 0.00 | 73 | 1004.9 |
| 20260507004405 | 63 | 160 | 3.5 | 7.8 | 0.00 | 0.00 | 0.00 | 73 | 1004.8 |
| 20260507003904 | 63 | 130 | 2.6 | 7.0 | 0.00 | 0.00 | 0.00 | 73 | 1004.7 |
| 20260507002904 | 63 | 155 | 2.6 | 7.0 | 0.00 | 0.00 | 0.00 | 73 | 1004.7 |
| 20260507002405 | 63 | 144 | 3.5 | 7.8 | 0.00 | 0.00 | 0.00 | 73 | 1004.8 |
| 20260507001904 | 63 | 143 | 0.9 | 8.7 | 0.00 | 0.00 | 0.00 | 72 | 1004.8 |
| 20260507001404 | 63 | 212 | 2.6 | 7.0 | 0.00 | 0.00 | 0.00 | 72 | 1004.8 |
| 20260507000904 | 63 | 116 | 2.6 | 6.1 | 0.00 | 0.00 | 0.00 | 72 | 1004.8 |
| 20260507000405 | 63 | 192 | 0.9 | 2.6 | 0.00 | 0.00 | 0.00 | 72 | 1004.7 |
| 20260506235904 | 63 | 302 | 0.9 | 2.6 | 0.00 | 0.00 | 0.00 | 72 | 1004.6 |
| 20260506234905 | 63 | 20 | 1.7 | 6.1 | 0.00 | 0.00 | 0.00 | 72 | 1004.7 |
| 20260506234404 | 63 | 105 | 2.6 | 6.1 | 0.00 | 0.00 | 0.00 | 72 | 1004.7 |
| 20260506233904 | 63 | 126 | 1.7 | 7.0 | 0.00 | 0.00 | 0.00 | 71 | 1004.8 |
| 20260506233404 | 63 | 193 | 1.7 | 5.2 | 0.00 | 0.00 | 0.00 | 71 | 1004.8 |
| 20260506232904 | 63 | 118 | 1.7 | 10.4 | 0.00 | 0.00 | 0.00 | 71 | 1004.6 |
| 20260506232404 | 63 | 145 | 2.6 | 7.0 | 0.00 | 0.00 | 0.00 | 71 | 1004.5 |
| 20260506230904 | 63 | 106 | 4.3 | 8.7 | 0.00 | 0.00 | 0.00 | 70 | 1004.5 |
| 20260506230404 | 64 | 105 | 5.2 | 11.3 | 0.00 | 0.00 | 0.00 | 70 | 1004.6 |
| 20260506225904 | 64 | 183 | 1.7 | 5.2 | 0.00 | 0.00 | 0.00 | 70 | 1004.6 |
| 20260506225404 | 64 | 134 | 1.7 | 4.3 | 0.00 | 0.00 | 0.00 | 70 | 1004.6 |
| 20260506224905 | 64 | 150 | 2.6 | 11.3 | 0.00 | 0.00 | 0.00 | 70 | 1004.6 |
| 20260506223905 | 64 | 143 | 2.6 | 8.7 | 0.00 | 0.00 | 0.00 | 69 | 1004.5 |
| 20260506223404 | 64 | 132 | 1.7 | 6.1 | 0.00 | 0.00 | 0.00 | 69 | 1004.4 |
| 20260506222905 | 64 | 178 | 3.5 | 7.8 | 0.00 | 0.00 | 0.00 | 69 | 1004.4 |
| 20260506222404 | 64 | 164 | 2.6 | 11.3 | 0.00 | 0.00 | 0.00 | 68 | 1004.4 |
| 20260506221904 | 65 | 159 | 1.7 | 7.0 | 0.00 | 0.00 | 0.00 | 68 | 1004.4 |
| 20260506221405 | 65 | 153 | 3.5 | 7.8 | 0.00 | 0.00 | 0.00 | 68 | 1004.2 |
| 20260506220405 | 65 | 177 | 6.1 | 17.4 | 0.00 | 0.00 | 0.00 | 67 | 1004.2 |
| 20260506215905 | 65 | 107 | 2.6 | 17.4 | 0.00 | 0.00 | 0.00 | 67 | 1004.3 |
| 20260506215404 | 65 | 149 | 2.6 | 12.2 | 0.00 | 0.00 | 0.00 | 67 | 1004.2 |
| 20260506214904 | 65 | 177 | 5.2 | 13.0 | 0.00 | 0.00 | 0.00 | 67 | 1004.2 |
| 20260506213404 | 66 | 153 | 1.7 | 13.0 | 0.00 | 0.00 | 0.00 | 66 | 1004.3 |
| 20260506212905 | 66 | 161 | 2.6 | 11.3 | 0.00 | 0.00 | 0.00 | 66 | 1004.2 |
| 20260506211904 | 66 | 192 | 5.2 | 10.4 | 0.00 | 0.00 | 0.00 | 65 | 1004.1 |
| 20260506211404 | 66 | 140 | 2.6 | 7.0 | 0.00 | 0.00 | 0.00 | 65 | 1004.1 |